Weather History for KEIK - March, 2013

Change the Weather History Date:

Saturday, March 30, 2013

  Actual Average (KBJC) Record (KBJC)
Temperature  
Mean Temperature 48 °F -  
Max Temperature 66 °F 53 °F 78 °F (1986)
Min Temperature 31 °F 32 °F 13 °F (1987)
Degree Days  
Heating Degree Days 16    
Moisture  
Dew Point 31 °F    
Average Humidity 61    
Maximum Humidity 94    
Minimum Humidity 19    
Precipitation  
Precipitation 0.00 in - - ()
Sea Level Pressure  
Sea Level Pressure 30.11 in    
Wind  
Wind Speed 5 mph (East)    
Max Wind Speed 23 mph    
Max Gust Speed 30 mph    
Visibility 10 miles    
Events      
Averages and records for this station are not official NWS values.
T = Trace of Precipitation, MM = Missing Value Source: NWS Daily Summary

Daily Weather History Graph

Daily Weather History Graph

Search for Another Location

Airport or City:

Trip Planner

Search our weather history database for the weather conditions in past years. The results will help you decide how hot, cold, wet, or windy it might be!

Date:

Astronomy

Mar. 30, 2013 Rise Set
Actual Time 6:46 AM MDT 7:22 PM MDT
Civil Twilight 6:19 AM MDT 7:50 PM MDT
Nautical Twilight 5:47 AM MDT 8:22 PM MDT
Astronomical Twilight 5:14 AM MDT 8:55 PM MDT
Moon 11:32 PM MDT (3/30) 8:44 AM MDT (3/30)
Length of Visible Light 13h 30m
Length of Day
12h 35m
Waning Gibbous, 86% of the Moon is Illuminated
Mar 30
Waning Gibbous
Apr 2
Last Quarter
Apr 10
New
Apr 18
First Quarter
Apr 25
Full

Hourly Weather History & Observations

Time (MDT) Temp. Windchill Dew Point Humidity Pressure Visibility Wind Dir Wind Speed Gust Speed Precip Events Conditions
12:16 AM 46.2 °F 42.2 °F 31.3 °F 56% 30.11 in 10.0 mi SSW 8.1 mph - N/A   Clear
12:36 AM 45.0 °F 41.2 °F 31.3 °F 59% 30.11 in 10.0 mi SSW 6.9 mph - N/A   Clear
12:56 AM 45.1 °F 42.8 °F 30.9 °F 58% 30.11 in 10.0 mi SSW 4.6 mph - N/A   Clear
1:16 AM 41.4 °F - 31.1 °F 67% 30.11 in 10.0 mi Calm Calm - N/A   Clear
1:36 AM 40.1 °F - 30.7 °F 69% 30.11 in 10.0 mi Calm Calm - N/A   Scattered Clouds
1:56 AM 39.2 °F - 31.1 °F 73% 30.12 in 10.0 mi Calm Calm - N/A   Scattered Clouds
2:16 AM 40.8 °F 38.8 °F 31.3 °F 69% 30.12 in 10.0 mi NNE 3.5 mph - N/A   Clear
2:36 AM 38.5 °F - 31.1 °F 75% 30.12 in 10.0 mi Calm Calm - N/A   Clear
2:56 AM 37.8 °F - 30.9 °F 76% 30.11 in 10.0 mi Calm Calm - N/A   Clear
3:16 AM 34.5 °F 31.6 °F 30.6 °F 85% 30.11 in 10.0 mi WSW 3.5 mph - N/A   Clear
3:36 AM 34.0 °F 28.8 °F 31.1 °F 89% 30.12 in 10.0 mi SW 5.8 mph - N/A   Clear
3:56 AM 33.6 °F - 30.7 °F 89% 30.12 in 10.0 mi Calm Calm - N/A   Clear
4:16 AM 33.4 °F - 30.6 °F 89% 30.11 in 10.0 mi Calm Calm - N/A   Clear
4:36 AM 33.1 °F 27.7 °F 30.2 °F 89% 30.11 in 10.0 mi SW 5.8 mph - N/A   Clear
4:56 AM 34.9 °F 30.8 °F 30.9 °F 85% 30.11 in 10.0 mi SSW 4.6 mph - N/A   Clear
5:16 AM 36.9 °F 34.3 °F 30.9 °F 79% 30.11 in 10.0 mi SSW 3.5 mph - N/A   Clear
5:36 AM 34.9 °F - 30.2 °F 83% 30.11 in 10.0 mi Calm Calm - N/A   Clear
5:56 AM 34.3 °F - 30.4 °F 85% 30.11 in 10.0 mi Calm Calm - N/A   Clear
6:16 AM 32.0 °F 28.7 °F 29.7 °F 91% 30.12 in 10.0 mi SW 3.5 mph - N/A   Clear
6:36 AM 31.5 °F - 29.8 °F 94% 30.12 in 10.0 mi Calm Calm - N/A   Clear
6:56 AM 32.2 °F - 30.2 °F 92% 30.12 in 10.0 mi Calm Calm - N/A   Clear
7:16 AM 32.0 °F - 29.7 °F 91% 30.12 in 10.0 mi Calm Calm - N/A   Clear
7:36 AM 34.7 °F - 32.0 °F 90% 30.12 in 10.0 mi Calm Calm - N/A   Clear
7:56 AM 36.9 °F - 32.9 °F 86% 30.13 in 10.0 mi Calm Calm - N/A   Clear
8:16 AM 39.9 °F - 34.0 °F 79% 30.13 in 10.0 mi Calm Calm - N/A   Clear
8:36 AM 44.4 °F - 35.1 °F 70% 30.13 in 10.0 mi Calm Calm - N/A   Clear
8:56 AM 49.3 °F - 34.5 °F 57% 30.12 in 10.0 mi SSE 3.5 mph - N/A   Clear
9:16 AM 53.2 °F - 32.0 °F 44% 30.11 in 10.0 mi South 4.6 mph - N/A   Clear
9:36 AM 55.4 °F - 30.9 °F 39% 30.11 in 10.0 mi SE 10.4 mph - N/A   Clear
9:56 AM 57.4 °F - 30.4 °F 36% 30.11 in 10.0 mi SE 10.4 mph - N/A   Clear
10:16 AM 58.5 °F - 29.1 °F 33% 30.10 in 10.0 mi SE 12.7 mph - N/A   Clear
10:36 AM 59.4 °F - 28.9 °F 31% 30.09 in 10.0 mi ESE 11.5 mph - N/A   Clear
10:56 AM 60.8 °F - 28.2 °F 29% 30.09 in 10.0 mi East 6.9 mph - N/A   Clear
11:16 AM 61.5 °F - 26.8 °F 27% 30.08 in 10.0 mi East 8.1 mph - N/A   Clear
11:36 AM 62.6 °F - 26.4 °F 25% 30.08 in 10.0 mi South 3.5 mph - N/A   Clear
11:56 AM 62.2 °F - 23.9 °F 23% 30.07 in 10.0 mi East 4.6 mph - N/A   Scattered Clouds
12:16 PM 62.2 °F - 22.3 °F 22% 30.06 in 10.0 mi Calm Calm - N/A   Overcast
12:36 PM 61.5 °F - 22.6 °F 23% 30.05 in 10.0 mi Calm Calm - N/A   Overcast
12:56 PM 61.2 °F - 24.3 °F 24% 30.04 in 10.0 mi NNE 3.5 mph - N/A   Overcast
1:16 PM 63.9 °F - 25.0 °F 23% 30.03 in 10.0 mi SSE 3.5 mph - N/A   Mostly Cloudy
1:36 PM 64.2 °F - 22.3 °F 20% 30.03 in 10.0 mi Calm Calm - N/A   Scattered Clouds
1:56 PM 64.6 °F - 22.1 °F 20% 30.02 in 10.0 mi SE 3.5 mph - N/A   Mostly Cloudy
2:16 PM 66.7 °F - 23.2 °F 19% 30.02 in 10.0 mi SW 5.8 mph - N/A   Mostly Cloudy
2:36 PM 65.5 °F - 26.4 °F 23% 30.02 in 10.0 mi NNW 12.7 mph 27.6 mph N/A   Mostly Cloudy
2:56 PM 64.0 °F - 26.6 °F 24% 30.02 in 10.0 mi North 9.2 mph - N/A   Overcast
3:16 PM 63.1 °F - 26.8 °F 25% 30.02 in 10.0 mi NNE 17.3 mph - N/A   Overcast
3:36 PM 62.1 °F - 27.7 °F 27% 30.02 in 10.0 mi NNE 10.4 mph - N/A   Mostly Cloudy
3:56 PM 62.1 °F - 25.2 °F 25% 30.02 in 10.0 mi WNW 19.6 mph 24.2 mph N/A   Overcast
4:16 PM 61.7 °F - 22.3 °F 22% 30.03 in 10.0 mi NW 21.9 mph 29.9 mph N/A   Mostly Cloudy
4:36 PM 63.7 °F - 24.1 °F 22% 30.06 in 10.0 mi North 23.0 mph 29.9 mph N/A   Scattered Clouds
4:56 PM 57.2 °F - 30.2 °F 36% 30.04 in 10.0 mi NE 18.4 mph 26.5 mph N/A   Mostly Cloudy
5:16 PM 57.0 °F - 31.5 °F 38% 30.07 in 10.0 mi North 13.8 mph 25.3 mph N/A   Overcast
5:36 PM 57.0 °F - 34.7 °F 43% 30.07 in 10.0 mi NE 17.3 mph 26.5 mph N/A   Overcast
5:56 PM 50.9 °F - 38.3 °F 62% 30.11 in 10.0 mi NNE 20.7 mph 25.3 mph N/A   Overcast
6:16 PM 49.8 °F - 38.5 °F 65% 30.12 in 10.0 mi NNE 15.0 mph 20.7 mph N/A   Overcast
6:36 PM 48.7 °F - 37.4 °F 65% 30.14 in 10.0 mi North 15.0 mph 25.3 mph N/A   Overcast
6:56 PM 47.1 °F - 37.4 °F 69% 30.15 in 10.0 mi NNE 13.8 mph - N/A   Mostly Cloudy
7:16 PM 45.7 °F 38.8 °F 37.4 °F 73% 30.18 in 10.0 mi NNE 16.1 mph 21.9 mph N/A   Scattered Clouds
7:36 PM 45.5 °F 40.8 °F 37.9 °F 75% 30.18 in 10.0 mi NNE 9.2 mph - N/A   Mostly Cloudy
7:56 PM 44.1 °F 40.8 °F 37.6 °F 78% 30.18 in 10.0 mi North 5.8 mph - N/A   Scattered Clouds
8:16 PM 43.7 °F 41.1 °F 37.8 °F 80% 30.19 in 10.0 mi NNW 4.6 mph - N/A   Clear
8:36 PM 42.6 °F - 37.6 °F 82% 30.20 in 10.0 mi Calm Calm - N/A   Scattered Clouds
8:56 PM 42.4 °F - 37.6 °F 83% 30.21 in 10.0 mi Calm Calm - N/A   Mostly Cloudy
9:16 PM 41.9 °F - 37.6 °F 85% 30.21 in 10.0 mi Calm Calm - N/A   Scattered Clouds
9:36 PM 39.6 °F - 36.7 °F 89% 30.22 in 10.0 mi Calm Calm - N/A   Clear
9:56 PM 38.5 °F - 36.0 °F 91% 30.23 in 10.0 mi Calm Calm - N/A   Clear
10:16 PM 38.5 °F 36.1 °F 36.1 °F 91% 30.23 in 10.0 mi SW 3.5 mph - N/A   Mostly Cloudy
10:36 PM 38.3 °F - 36.3 °F 93% 30.23 in 10.0 mi Calm Calm - N/A   Overcast
10:56 PM 38.5 °F - 36.1 °F 91% 30.23 in 10.0 mi Calm Calm - N/A   Scattered Clouds
11:16 PM 37.6 °F 35.1 °F 35.6 °F 93% 30.23 in 10.0 mi South 3.5 mph - N/A   Clear
11:36 PM 37.0 °F - 35.2 °F 93% 30.22 in 10.0 mi Calm Calm - N/A   Clear
11:56 PM 36.3 °F - 34.7 °F 94% 30.22 in 10.0 mi Calm Calm - N/A   Clear